Content
SEND FEEDBACK

Daily
Averages
Monthly
Summary
United States of America

CHESAPEAKE RANCH ESTATES, MARYLAND


Home > North America > United States > Maryland
Elevation: 36 feet     Latitude: 38 19N     Longitude: 076 25W

WEATHER
 
SELECT A DAY
Number of Records: 68,671;   Date Range: 1/1/95 - 9/14/14
 
SHARE

PRINT THIS DATA

[ ← Previous Day ]
WEATHER ALMANAC - FEBRUARY 13, 2013
[ Next Day → ]
[ °C ]   °F
Weather ElementAverageHighLow
Temperature41.1 °F45 °F (2:52 pm)37 °F (11:52 pm)
Dewpoint34.7 °F39.2 °F (4:15 pm)28.9 °F (7:52 am)
Humidity78.4 %93 % (5:52 pm)65 % (8:52 am)
Barometer29.74 in29.92 in (1:52 am)29.63 in (4:52 pm)
Wind Speed7.5 mph12.7 mph (8:37 pm)
Weather ElementAverage
Visibility6.5 mi
Wind DirectionSSW (215.8 °)

Weather ElementTotal
Precipitation0.14 in
Heating Degree Days24 (Base 65)
Averaged from 36 records on February 13, 2013
WEATHER CONDITIONS BREAKOUT
WIND DIRECTION BREAKOUT
WEATHER BY HOUR - FEBRUARY 13, 2013
[ °C ]   °F
Local TimeTemperatureDewpointHumidityBarometerVisibilityWind DirectionWind SpeedGust SpeedPrecipitationEventsConditions
1:52 AM41.0 °F35.1 °F79 %29.92 in10.0 miNorth (360°)8.1 mphClear
2:52 AM39.9 °F32.0 °F73 %29.90 in10.0 miNorth (360°)6.9 mphClear
3:52 AM37.9 °F32.0 °F79 %29.88 in10.0 miNNE (20°)6.9 mphClear
4:52 AM39.0 °F30.0 °F70 %29.88 in10.0 miNE (40°)6.9 mphClear
5:02 AM39.2 °F30.2 °F70 %29.89 in10.0 miNE (50°)5.8 mphMostly Cloudy
5:52 AM39.0 °F30.9 °F73 %29.88 in10.0 miNE (50°)6.9 mphMostly Cloudy
6:52 AM37.9 °F30.0 °F73 %29.86 in10.0 miNE (40°)9.2 mphMostly Cloudy
7:52 AM39.0 °F28.9 °F67 %29.88 in10.0 miENE (60°)10.4 mphMostly Cloudy
8:52 AM39.9 °F28.9 °F65 %29.87 in10.0 miNE (50°)6.9 mphMostly Cloudy
9:52 AM41.0 °F30.0 °F65 %29.85 in10.0 miEast (80°)10.4 mphMostly Cloudy
10:52 AM42.1 °F32.0 °F67 %29.85 in10.0 miEast (90°)6.9 mphOvercast
11:52 AM43.0 °F33.1 °F68 %29.81 in10.0 miEast (90°)5.8 mphMostly Cloudy
12:52 PM44.1 °F33.1 °F65 %29.76 in10.0 miEast (90°)4.6 mphOvercast
1:32 PM44.6 °F35.6 °F71 %29.71 in9.0 miENE (70°)6.9 mph0.00 inRainLight Rain
1:52 PM44.1 °F36.0 °F73 %29.70 in8.0 miENE (70°)5.8 mph0.00 inRainLight Rain
1:58 PM44.6 °F35.6 °F71 %29.70 in10.0 miEast (90°)4.6 mph0.00 inOvercast
2:52 PM45.0 °F37.0 °F74 %29.67 in10.0 miNorth (10°)3.5 mph0.00 inOvercast
3:40 PM44.6 °F37.4 °F76 %29.65 in7.0 miNorth (360°)3.5 mph0.00 inRainLight Rain
3:52 PM44.1 °F37.0 °F76 %29.65 in4.0 miNorth (360°)5.8 mph0.01 inRainLight Rain
3:55 PM44.6 °F37.4 °F76 %29.65 in3.0 miNNW (340°)5.8 mph0.00 inRainLight Rain
4:03 PM42.8 °F37.4 °F81 %29.65 in2.0 miNorth (350°)5.8 mph0.00 inRainLight Rain
4:15 PM42.8 °F39.2 °F87 %29.64 in1.5 miNNW (330°)5.8 mph0.01 inRainRain
4:32 PM42.8 °F37.4 °F81 %29.64 in1.5 miWNW (300°)5.8 mph0.02 inRainRain
4:34 PM42.8 °F37.4 °F81 %29.64 in0.8 miWNW (290°)5.8 mph0.02 inRainRain
4:52 PM41.0 °F37.9 °F89 %29.63 in0.8 miNW (310°)5.8 mph0.02 inRainRain
4:57 PM41.0 °F37.4 °F87 %29.64 in0.8 miWNW (300°)6.9 mph0.00 inRainRain
5:52 PM39.9 °F37.9 °F93 %29.65 in0.8 miNW (310°)9.2 mph0.02 inRainLight Rain
6:46 PM41.0 °F37.4 °F87 %29.64 in2.0 miNW (320°)6.9 mph0.01 inRainLight Rain
6:52 PM41.0 °F37.9 °F89 %29.65 in2.0 miNW (320°)5.8 mph0.01 inRainLight Rain
7:52 PM39.9 °F37.0 °F89 %29.66 in2.0 miNW (320°)9.2 mph0.00 inRainLight Rain
8:37 PM39.2 °F37.4 °F93 %29.66 in4.0 miNW (320°)12.7 mph0.01 inRainLight Rain
8:52 PM39.9 °F37.0 °F89 %29.67 in4.0 miNNW (330°)10.4 mph0.01 inRainLight Rain
9:52 PM37.9 °F34.0 °F86 %29.70 in4.0 miNNW (330°)12.7 mph0.00 inRainLight Rain
10:52 PM37.9 °F34.0 °F86 %29.73 in8.0 miNW (320°)12.7 mph0.00 inOvercast
11:52 PM37.0 °F33.1 °F86 %29.75 in10.0 miNW (310°)11.5 mph0.00 inMostly Cloudy
11:59 PM37.4 °F33.8 °F87 %29.75 in10.0 miNNW (330°)10.4 mphMostly Cloudy
Hourly data recorded from KNHK, located miles away from Chesapeake Ranch Estates, Maryland







STORIES FROM OUR PARTNERS